When you browse on this site, cookies collect data to enhance your experience and personalize the content and advertising you see.
Visit our Privacy Policy to learn more. By continuing to use the site, you agree to this use of cookies and data.
  • In Spain
  • List of Countries
  • For 7 days
  • Water Temperature
  • Weather Map
  • Weather Widgets
  • user-avatar
    Login

    Hourly Weather Paro

    Today, 28 February, Friday

    Time Temperature Precipitation Wind Pressure Humidity
    00:00 +1°C° 0 mm 3 mps 558 mmHg 65%
    01:00 +1°C° 0 mm 3 mps 558 mmHg 61%
    02:00 +1°C° 0 mm 3 mps 557 mmHg 56%
    03:00 0°C° 0 mm 3 mps 557 mmHg 52%
    04:00 0°C° 0 mm 3 mps 557 mmHg 48%
    05:00 0°C° 0 mm 3 mps 557 mmHg 45%
    06:00 -1°C° 0 mm 4 mps 558 mmHg 39%
    07:00 +3°C° 0 mm 3 mps 560 mmHg 34%
    08:00 +7°C° 0 mm 2 mps 561 mmHg 29%
    09:00 +11°C° 0 mm 1 mps 563 mmHg 24%
    10:00 +12°C° 0 mm 2 mps 564 mmHg 24%
    11:00 +14°C° 0 mm 2 mps 564 mmHg 23%
    12:00 +15°C° 0 mm 2 mps 565 mmHg 23%
    13:00 +15°C° 0 mm 2 mps 564 mmHg 28%
    14:00 +14°C° 0 mm 2 mps 563 mmHg 34%
    15:00 +14°C° 0 mm 2 mps 562 mmHg 39%
    16:00 +12°C° 0.1 mm 2 mps 561 mmHg 56%
    17:00 +9°C° 0.1 mm 1 mps 559 mmHg 73%
    18:00 +6°C° 0.1 mm 0 mps 558 mmHg 91%
    19:00 +6°C° 0 mm 1 mps 558 mmHg 89%
    20:00 +6°C° 0 mm 1 mps 559 mmHg 87%
    21:00 +5°C° 0 mm 1 mps 559 mmHg 86%
    22:00 +5°C° 0 mm 1 mps 559 mmHg 84%
    23:00 +5°C° 0 mm 1 mps 558 mmHg 83%

    Tomorrow, 29 February, Saturday

    Time Temperature Precipitation Wind Pressure Humidity
    00:00 +3°C° 0 mm 2 mps 558 mmHg 81%
    01:00 +3°C° 0 mm 2 mps 558 mmHg 78%
    02:00 +3°C° 0 mm 2 mps 557 mmHg 76%
    03:00 +3°C° 0 mm 2 mps 557 mmHg 73%
    04:00 +2°C° 0 mm 2 mps 557 mmHg 69%
    05:00 +2°C° 0 mm 2 mps 557 mmHg 64%
    06:00 +2°C° 0 mm 2 mps 557 mmHg 59%
    07:00 +6°C° 0 mm 1 mps 559 mmHg 51%
    08:00 +9°C° 0 mm 1 mps 561 mmHg 42%
    09:00 +11°C° 0 mm 0 mps 562 mmHg 34%
    10:00 +13°C° 0 mm 1 mps 563 mmHg 32%
    11:00 +14°C° 0 mm 2 mps 563 mmHg 31%
    12:00 +15°C° 0 mm 2 mps 563 mmHg 30%
    13:00 +13°C° 0.1 mm 3 mps 562 mmHg 38%
    14:00 +13°C° 0.1 mm 3 mps 561 mmHg 47%
    15:00 +12°C° 0.1 mm 3 mps 560 mmHg 56%
    16:00 +10°C° 0.2 mm 2 mps 559 mmHg 68%
    17:00 +8°C° 0.2 mm 2 mps 558 mmHg 80%
    18:00 +7°C° 0.2 mm 1 mps 558 mmHg 92%
    19:00 +7°C° 0.1 mm 1 mps 558 mmHg 92%
    20:00 +6°C° 0.1 mm 1 mps 558 mmHg 93%
    21:00 +5°C° 0.1 mm 1 mps 558 mmHg 93%
    22:00 +5°C° 0 mm 1 mps 558 mmHg 91%
    23:00 +5°C° 0 mm 1 mps 558 mmHg 88%

    Day after tomorrow, 1 March, Sunday

    Time Temperature Precipitation Wind Pressure Humidity
    00:00 +4°C° 0 mm 1 mps 558 mmHg 86%
    01:00 +4°C° 0 mm 1 mps 557 mmHg 85%
    02:00 +3°C° 0 mm 2 mps 557 mmHg 83%
    03:00 +3°C° 0 mm 2 mps 557 mmHg 81%
    04:00 +2°C° 0 mm 2 mps 557 mmHg 79%
    05:00 +2°C° 0 mm 2 mps 556 mmHg 76%
    06:00 +3°C° 0 mm 1 mps 556 mmHg 74%
    07:00 +6°C° 0 mm 1 mps 558 mmHg 66%
    08:00 +8°C° 0 mm 1 mps 560 mmHg 58%
    09:00 +11°C° 0 mm 1 mps 562 mmHg 51%
    10:00 +12°C° 0.1 mm 1 mps 562 mmHg 51%
    11:00 +12°C° 0.1 mm 2 mps 562 mmHg 52%
    12:00 +13°C° 0.1 mm 2 mps 562 mmHg 53%
    13:00 +12°C° 0.6 mm 2 mps 560 mmHg 62%
    14:00 +10°C° 0.6 mm 2 mps 559 mmHg 72%
    15:00 +9°C° 0.6 mm 3 mps 558 mmHg 81%
    16:00 +8°C° 0.7 mm 2 mps 558 mmHg 86%
    17:00 +8°C° 0.7 mm 1 mps 557 mmHg 91%
    18:00 +7°C° 0.7 mm 1 mps 556 mmHg 95%
    19:00 +7°C° 0.3 mm 1 mps 557 mmHg 95%
    20:00 +5°C° 0.3 mm 0 mps 557 mmHg 94%
    21:00 +4°C° 0.3 mm 0 mps 557 mmHg 93%
    22:00 +4°C° 0.1 mm 0 mps 557 mmHg 92%
    23:00 +4°C° 0.1 mm 0 mps 557 mmHg 91%

    2 March, Monday

    Time Temperature Precipitation Wind Pressure Humidity
    00:00 +3°C° 0.1 mm 0 mps 556 mmHg 90%
    01:00 +3°C° 0 mm 0 mps 556 mmHg 91%
    02:00 +3°C° 0 mm 0 mps 556 mmHg 91%
    03:00 +3°C° 0 mm 0 mps 555 mmHg 91%
    04:00 +3°C° 0.1 mm 0 mps 555 mmHg 92%
    05:00 +3°C° 0.1 mm 0 mps 556 mmHg 92%
    06:00 +3°C° 0.1 mm 0 mps 556 mmHg 93%
    07:00 +5°C° 0.2 mm 1 mps 557 mmHg 88%
    08:00 +7°C° 0.2 mm 1 mps 558 mmHg 83%
    09:00 +8°C° 0.2 mm 1 mps 559 mmHg 78%
    10:00 +9°C° 0.4 mm 1 mps 559 mmHg 79%
    11:00 +8°C° 0.4 mm 2 mps 559 mmHg 80%
    12:00 +9°C° 0.4 mm 3 mps 559 mmHg 80%
    13:00 +9°C° 0.6 mm 2 mps 558 mmHg 80%
    14:00 +9°C° 0.6 mm 2 mps 558 mmHg 80%
    15:00 +9°C° 0.6 mm 2 mps 557 mmHg 79%
    16:00 +8°C° 0.5 mm 2 mps 557 mmHg 85%
    17:00 +6°C° 0.5 mm 2 mps 556 mmHg 91%
    18:00 +6°C° 0.5 mm 1 mps 555 mmHg 96%
    19:00 +6°C° 0.2 mm 1 mps 556 mmHg 96%
    20:00 +5°C° 0.2 mm 1 mps 556 mmHg 96%
    21:00 +4°C° 0.2 mm 0 mps 556 mmHg 96%
    22:00 +4°C° 0.2 mm 0 mps 556 mmHg 95%
    23:00 +4°C° 0.2 mm 1 mps 556 mmHg 94%

    3 March, Tuesday

    Time Temperature Precipitation Wind Pressure Humidity
    00:00 +4°C° 0.2 mm 1 mps 556 mmHg 93%
    01:00 +4°C° 0.1 mm 1 mps 556 mmHg 93%
    02:00 +4°C° 0.1 mm 1 mps 556 mmHg 93%
    03:00 +4°C° 0.1 mm 1 mps 556 mmHg 93%
    04:00 +4°C° 0 mm 1 mps 555 mmHg 91%
    05:00 +3°C° 0 mm 1 mps 555 mmHg 90%
    06:00 +3°C° 0 mm 1 mps 555 mmHg 88%
    07:00 +5°C° 0 mm 1 mps 556 mmHg 83%
    08:00 +7°C° 0 mm 1 mps 558 mmHg 77%
    09:00 +9°C° 0 mm 1 mps 559 mmHg 72%
    10:00 +10°C° 0.2 mm 1 mps 559 mmHg 72%
    11:00 +9°C° 0.2 mm 2 mps 559 mmHg 72%
    12:00 +10°C° 0.2 mm 2 mps 559 mmHg 71%
    13:00 +10°C° 0.5 mm 2 mps 558 mmHg 73%
    14:00 +10°C° 0.5 mm 2 mps 558 mmHg 76%
    15:00 +10°C° 0.5 mm 2 mps 557 mmHg 78%
    16:00 +9°C° 0.4 mm 2 mps 557 mmHg 83%
    17:00 +8°C° 0.4 mm 1 mps 556 mmHg 89%
    18:00 +7°C° 0.4 mm 1 mps 555 mmHg 94%
    19:00 +6°C° 0.1 mm 1 mps 556 mmHg 94%
    20:00 +6°C° 0.1 mm 1 mps 556 mmHg 94%
    21:00 +5°C° 0.1 mm 1 mps 556 mmHg 93%
    22:00 +5°C° 0 mm 1 mps 556 mmHg 91%
    23:00 +5°C° 0 mm 1 mps 556 mmHg 90%

    4 March, Wednesday

    Time Temperature Precipitation Wind Pressure Humidity
    00:00 +5°C° 0 mm 1 mps 556 mmHg 88%
    01:00 +4°C° 0 mm 1 mps 555 mmHg 88%
    02:00 +4°C° 0 mm 1 mps 555 mmHg 88%
    03:00 +3°C° 0 mm 1 mps 554 mmHg 89%
    04:00 +3°C° 0 mm 1 mps 554 mmHg 88%
    05:00 +3°C° 0 mm 1 mps 555 mmHg 88%
    06:00 +3°C° 0 mm 1 mps 555 mmHg 87%
    07:00 +5°C° 0 mm 1 mps 556 mmHg 82%
    08:00 +7°C° 0 mm 1 mps 557 mmHg 77%
    09:00 +9°C° 0 mm 1 mps 559 mmHg 72%
    10:00 +9°C° 0.2 mm 1 mps 559 mmHg 70%
    11:00 +9°C° 0.2 mm 2 mps 559 mmHg 69%
    12:00 +10°C° 0.2 mm 2 mps 559 mmHg 67%
    13:00 +10°C° 0.5 mm 3 mps 559 mmHg 69%
    14:00 +10°C° 0.5 mm 3 mps 558 mmHg 70%
    15:00 +10°C° 0.5 mm 3 mps 557 mmHg 72%
    16:00 +8°C° 0.4 mm 2 mps 556 mmHg 79%
    17:00 +7°C° 0.4 mm 2 mps 556 mmHg 87%
    18:00 +6°C° 0.4 mm 1 mps 555 mmHg 94%
    19:00 +6°C° 0.3 mm 1 mps 555 mmHg 94%
    20:00 +5°C° 0.3 mm 1 mps 556 mmHg 95%
    21:00 +5°C° 0.3 mm 1 mps 556 mmHg 95%
    22:00 +5°C° 0.2 mm 1 mps 556 mmHg 94%
    23:00 +5°C° 0.2 mm 1 mps 556 mmHg 93%
    Show more